Date String (YYYY-MM-DD hh:mm:ss) UTC,Instrument flags,absolute air pressure of the measurement (hPa),sample flow rate (lpm),inlet stack bypass flow (lpm),air temperature of the measurement (°C),ambient temperature measured by the external sensor (°C),aerosol sample conditioner tube jacket temperature (°C),OPC LED temperature (°C),internal box temperature (°C),relative humidity of the measurement (%),span deviation,mass concentration of particles derived from Lorenz-Mie calculation of OPC scattering (μg/m³),mass concentration of particles derived from Lorenz-Mie calculation of OPC scattering (μg/m³),mass concentration of particles derived from Lorenz-Mie calculation of OPC scattering (μg/m³)
DateTimeUTC,F1_M11,P_M11,Q1_M11,Q2_M11,T1_M11,T2_M11,T3_M11,T4_M11,T5_M11,U1_M11,ZSPAN_M11,X0_M11,X2_M11,X1_M11
2024-01-11 20:00:00,SystemResetWarning,0815.6,5.00,000.00,019.1,018.1,000.0,027.4,020.0,8.4,0000.0,0017.09,0004.50,0003.27
2024-01-11 20:01:00,SystemResetWarning,0815.6,5.00,000.00,019.0,018.1,000.0,027.4,020.0,8.4,0000.0,0017.11,0004.52,0003.27
2024-01-11 20:02:00,SystemResetWarning,0815.6,5.00,000.00,019.1,018.1,000.0,027.4,020.1,8.4,0000.0,0016.01,0004.54,0003.29
2024-01-11 20:03:00,SystemResetWarning,0815.6,5.01,000.00,019.1,018.5,000.0,027.4,020.7,8.3,0000.0,0015.94,0004.57,0003.31
2024-01-11 20:04:00,SystemResetWarning,0815.7,4.99,000.00,019.3,019.2,000.0,027.5,021.1,8.2,0000.0,0016.61,0004.56,0003.31
2024-01-11 20:05:00,SystemResetWarning,0815.6,5.00,000.00,019.4,019.3,000.0,027.5,021.0,8.1,0000.0,0016.32,0004.61,0003.31
2024-01-11 20:06:00,SystemResetWarning,0815.6,4.99,000.00,019.4,019.2,000.0,027.5,020.7,8.1,0000.0,0016.01,0004.61,0003.32
2024-01-11 20:07:00,SystemResetWarning,0815.6,4.99,000.00,019.4,019.1,000.0,027.5,020.6,8.1,0000.0,0016.72,0004.65,0003.32
2024-01-11 20:08:00,SystemResetWarning,0815.6,5.00,000.00,019.4,019.0,000.0,027.5,020.4,8.2,0000.0,0016.61,0004.62,0003.33
2024-01-11 20:09:00,SystemResetWarning,0815.6,5.01,000.00,019.3,018.9,000.0,027.5,020.3,8.2,0000.0,0016.22,0004.57,0003.32
2024-01-11 20:10:00,SystemResetWarning,0815.6,5.00,000.00,019.3,018.8,000.0,027.5,020.3,8.1,0000.0,0015.03,0004.56,0003.31
2024-01-11 20:11:00,SystemResetWarning,0815.6,5.00,000.00,019.3,018.8,000.0,027.5,020.3,8.1,0000.0,0014.29,0004.53,0003.31
2024-01-11 20:12:00,SystemResetWarning,0815.6,5.00,000.00,019.3,018.7,000.0,027.5,020.3,8.1,0000.0,0014.04,0004.52,0003.31
2024-01-11 20:13:00,SystemResetWarning,0815.6,5.00,000.00,019.3,018.7,000.0,027.5,020.3,8.2,0000.0,0013.59,0004.46,0003.30
2024-01-11 20:14:00,SystemResetWarning,0815.7,5.00,000.00,019.3,018.6,000.0,027.5,020.2,8.2,0000.0,0012.94,0004.34,0003.28
2024-01-11 20:15:00,SystemResetWarning,0815.6,5.00,000.00,019.3,018.6,000.0,027.5,020.2,8.1,0000.0,0011.99,0004.31,0003.28
2024-01-11 20:16:00,SystemResetWarning,0815.6,5.00,000.00,019.3,018.5,000.0,027.5,020.2,8.1,0000.0,0011.59,0004.26,0003.29
2024-01-11 20:17:00,SystemResetWarning,0815.6,5.00,000.00,019.2,018.5,000.0,027.5,020.2,8.1,0000.0,0011.21,0004.27,0003.31
2024-01-11 20:18:00,SystemResetWarning,0815.6,5.00,000.00,019.2,018.5,000.0,027.5,020.2,8.0,0000.0,0010.56,0004.23,0003.30
2024-01-11 20:19:00,SystemResetWarning,0815.6,4.99,000.00,019.2,018.5,000.0,027.5,020.2,8.0,0000.0,0011.30,0004.28,0003.31
2024-01-11 20:20:00,SystemResetWarning,0815.7,5.00,000.00,019.2,018.5,000.0,027.5,020.1,8.0,0000.0,0011.59,0004.33,0003.32
2024-01-11 20:21:00,SystemResetWarning,0815.7,5.00,000.00,019.2,018.5,000.0,027.5,020.1,8.1,0000.0,0011.50,0004.31,0003.33
2024-01-11 20:22:00,SystemResetWarning,0815.6,5.01,000.00,019.2,018.4,000.0,027.5,020.1,8.1,0000.0,0011.85,0004.27,0003.33
2024-01-11 20:23:00,SystemResetWarning,0815.7,5.00,000.00,019.2,018.4,000.0,027.5,020.1,8.1,0000.0,0012.33,0004.24,0003.33
2024-01-11 20:24:00,SystemResetWarning,0815.8,5.00,000.00,019.1,018.3,000.0,027.5,020.0,8.2,0002.1,0012.25,0004.30,0003.33
2024-01-11 20:25:00,SystemResetWarning,0815.8,5.00,000.00,019.1,018.3,000.0,027.5,020.1,8.2,0002.4,0012.41,0004.36,0003.34
2024-01-11 20:26:00,SystemResetWarning,0815.8,5.00,000.00,019.1,018.3,000.0,027.5,020.1,8.3,0002.4,0012.04,0004.39,0003.35
2024-01-11 20:27:00,SystemResetWarning,0815.8,5.00,000.00,019.1,018.3,000.0,027.5,020.1,8.3,0002.7,0012.14,0004.39,0003.34
2024-01-11 20:28:00,SystemResetWarning,0815.8,5.00,000.00,019.1,018.2,000.0,027.4,020.0,8.3,0002.5,0012.69,0004.37,0003.34
2024-01-11 20:29:00,SystemResetWarning,0815.8,5.00,000.00,019.1,018.2,000.0,027.4,020.1,8.3,0002.5,0013.66,0004.40,0003.35
2024-01-11 20:30:00,SystemResetWarning,0815.8,5.00,000.00,019.1,018.2,000.0,027.4,020.1,8.4,0003.2,0013.58,0004.43,0003.37
2024-01-11 20:31:00,SystemResetWarning,0815.9,5.00,000.00,019.1,018.2,000.0,027.4,020.0,8.4,0003.8,0013.77,0004.43,0003.37
2024-01-11 20:32:00,SystemResetWarning,0815.9,5.01,000.00,019.1,018.2,000.0,027.4,020.0,8.4,0003.7,0013.83,0004.43,0003.37
2024-01-11 20:33:00,SystemResetWarning,0815.9,5.01,000.00,019.1,018.2,000.0,027.4,020.0,8.3,0004.0,0013.75,0004.44,0003.37
2024-01-11 20:34:00,SystemResetWarning,0816.0,5.00,000.00,019.1,018.2,000.0,027.4,020.1,8.2,0003.3,0013.30,0004.42,0003.36
2024-01-11 20:35:00,SystemResetWarning,0816.0,5.00,000.00,019.1,018.2,000.0,027.4,020.1,8.2,0000.0,0012.91,0004.39,0003.37
2024-01-11 20:36:00,SystemResetWarning,0816.0,4.99,000.00,019.1,018.2,000.0,027.4,020.1,8.2,0000.0,0012.79,0004.37,0003.37
2024-01-11 20:37:00,SystemResetWarning,0816.0,4.99,000.00,019.1,018.2,000.0,027.4,020.1,8.1,0000.0,0013.40,0004.37,0003.37
2024-01-11 20:38:00,SystemResetWarning,0816.0,5.00,000.00,019.1,018.3,000.0,027.4,020.1,8.1,0000.0,0014.00,0004.40,0003.37
2024-01-11 20:39:00,SystemResetWarning,0816.0,5.00,000.00,019.1,018.3,000.0,027.4,020.1,8.1,0000.0,0013.66,0004.43,0003.36
2024-01-11 20:40:00,SystemResetWarning,0816.0,4.99,000.00,019.1,018.3,000.0,027.4,020.0,8.0,0000.0,0012.78,0004.45,0003.36
2024-01-11 20:41:00,SystemResetWarning,0816.0,5.00,000.00,019.1,018.3,000.0,027.4,020.0,7.9,0000.0,0012.22,0004.39,0003.35
2024-01-11 20:42:00,SystemResetWarning,0816.0,5.00,000.00,019.1,018.2,000.0,027.4,020.0,7.9,0000.0,0012.34,0004.37,0003.35
2024-01-11 20:43:00,SystemResetWarning,0816.0,5.00,000.00,019.1,018.2,000.0,027.3,020.0,7.9,0000.0,0012.12,0004.36,0003.35
2024-01-11 20:44:00,SystemResetWarning,0816.1,5.00,000.00,019.0,018.2,000.0,027.3,020.0,7.9,0000.0,0012.49,0004.38,0003.35
2024-01-11 20:45:00,SystemResetWarning,0816.1,4.99,000.00,019.0,018.2,000.0,027.3,020.0,7.9,0000.0,0014.23,0004.44,0003.37
2024-01-11 20:46:00,SystemResetWarning,0816.1,5.00,000.00,019.0,018.1,000.0,027.3,020.0,7.9,0000.0,0014.22,0004.43,0003.37
2024-01-11 20:47:00,SystemResetWarning,0816.1,5.00,000.00,019.0,018.1,000.0,027.4,020.0,7.9,0000.0,0014.46,0004.39,0003.37
2024-01-11 20:48:00,SystemResetWarning,0816.1,5.00,000.00,019.0,018.0,000.0,027.4,020.0,7.8,0000.0,0014.57,0004.40,0003.36
2024-01-11 20:49:00,SystemResetWarning,0816.1,5.00,000.00,019.0,017.9,000.0,027.4,020.0,7.8,0000.0,0014.25,0004.41,0003.36
2024-01-11 20:50:00,SystemResetWarning,0816.1,5.00,000.00,019.0,017.9,000.0,027.4,020.0,7.8,0000.0,0013.83,0004.37,0003.37
2024-01-11 20:51:00,SystemResetWarning,0816.1,4.99,000.00,019.0,017.9,000.0,027.4,020.1,7.8,0000.0,0013.71,0004.32,0003.38
2024-01-11 20:52:00,SystemResetWarning,0816.1,5.02,000.00,019.0,018.2,000.0,027.4,020.5,7.7,0000.0,0014.17,0004.31,0003.38
2024-01-11 20:53:00,SystemResetWarning,0816.1,5.01,000.00,019.1,018.9,000.0,027.4,020.9,7.7,0000.0,0014.23,0004.29,0003.38
2024-01-11 20:54:00,SystemResetWarning,0816.2,4.99,000.00,019.2,019.1,000.0,027.4,020.8,7.6,0000.0,0014.04,0004.27,0003.38
2024-01-11 20:55:00,SystemResetWarning,0816.2,5.00,000.00,019.2,019.0,000.0,027.4,020.5,7.7,0000.0,0013.48,0004.26,0003.38
2024-01-11 20:56:00,SystemResetWarning,0816.2,5.00,000.00,019.2,018.8,000.0,027.4,020.2,7.7,0000.0,0011.59,0004.20,0003.38
2024-01-11 20:57:00,SystemResetWarning,0816.2,5.00,000.00,019.2,018.6,000.0,027.4,020.1,7.7,0000.0,0011.88,0004.20,0003.39
2024-01-11 20:58:00,SystemResetWarning,0816.2,5.00,000.00,019.1,018.5,000.0,027.4,020.0,7.7,0000.0,0012.72,0004.25,0003.40
2024-01-11 20:59:00,SystemResetWarning,0816.2,5.00,000.00,019.1,018.4,000.0,027.4,020.0,7.8,0000.0,0012.18,0004.27,0003.42
